Weather History for KDAG - June, 2014

Change the Weather History Date:

Wednesday, June 18, 2014

  Actual Average Record
Temperature  
Mean Temperature 75 °F -  
Max Temperature 91 °F 99 °F 112 °F (1985)
Min Temperature 60 °F 68 °F 56 °F (1979)
Cooling Degree Days 10    
Growing Degree Days 25 (Base 50)    
Moisture  
Dew Point 23 °F    
Average Humidity 16    
Maximum Humidity 35    
Minimum Humidity 5    
Precipitation  
Precipitation 0.00 in - - ()
Sea Level Pressure  
Sea Level Pressure 29.82 in    
Wind  
Wind Speed 10 mph (WNW)    
Max Wind Speed 23 mph    
Max Gust Speed 34 mph    
Visibility 10 miles    
Events      
Averages and records for this station are not official NWS values.
T = Trace of Precipitation, MM = Missing Value Source: NWS Daily Summary

Daily Weather History Graph

Daily Weather History Graph

Search for Another Location

Airport or City:

Trip Planner

Search our weather history database for the weather conditions in past years. The results will help you decide how hot, cold, wet, or windy it might be!

Date:

Astronomy

Jun. 18, 2014 Rise Set
Actual Time 5:33 AM PDT 8:03 PM PDT
Civil Twilight 5:03 AM PDT 8:32 PM PDT
Nautical Twilight 4:27 AM PDT 9:09 PM PDT
Astronomical Twilight 3:46 AM PDT 9:50 PM PDT
Moon No Moon Rise 11:48 AM PDT (6/18)
Length of Visible Light 15h 29m
Length of Day
14h 29m
Waning Gibbous, 61% of the Moon is Illuminated
Jun 18
Waning Gibbous
Jun 19
Last Quarter
Jun 27
New
Jul 5
First Quarter
Jul 12
Full

Hourly Weather History & Observations

Time (PDT) Temp. Dew Point Humidity Pressure Visibility Wind Dir Wind Speed Gust Speed Precip Events Conditions
12:50 AM 70.0 °F 30.9 °F 24% 29.73 in 10.0 mi West 23.0 mph 34.5 mph N/A   Clear
2:50 AM 64.9 °F 32.0 °F 29% 29.78 in 10.0 mi WNW 11.5 mph - N/A   Clear
3:50 AM 63.0 °F 32.0 °F 31% 29.80 in 10.0 mi West 10.4 mph - N/A   Clear
4:50 AM 62.1 °F 30.9 °F 31% 29.81 in 10.0 mi West 9.2 mph - N/A   Clear
5:50 AM 60.1 °F 32.0 °F 35% 29.83 in 10.0 mi West 8.1 mph - N/A   Clear
6:50 AM 64.0 °F 33.1 °F 31% 29.86 in 10.0 mi West 6.9 mph - N/A   Clear
7:50 AM 69.1 °F 33.1 °F 26% 29.87 in 10.0 mi West 9.2 mph - N/A   Clear
8:50 AM 73.9 °F 28.9 °F 19% 29.88 in 10.0 mi West 10.4 mph - N/A   Clear
9:50 AM 78.1 °F 23.0 °F 13% 29.88 in 10.0 mi NNW 4.6 mph - N/A   Clear
10:50 AM 81.0 °F 21.0 °F 11% 29.88 in 10.0 mi Variable 5.8 mph - N/A   Clear
11:50 AM 82.9 °F 19.0 °F 9% 29.88 in 10.0 mi ENE 9.2 mph - N/A   Clear
1:50 PM 84.9 °F 16.0 °F 8% 29.85 in 10.0 mi Variable 3.5 mph - N/A   Clear
2:50 PM 87.1 °F 15.1 °F 7% 29.83 in 10.0 mi Variable 4.6 mph - N/A   Clear
3:50 PM 89.1 °F 15.1 °F 6% 29.81 in 10.0 mi Variable 5.8 mph - N/A   Clear
4:50 PM 90.0 °F 14.0 °F 6% 29.80 in 10.0 mi ENE 6.9 mph - N/A   Clear
5:50 PM 90.0 °F 12.0 °F 6% 29.79 in 10.0 mi NNW 5.8 mph - N/A   Clear
6:50 PM 89.1 °F 9.0 °F 5% 29.79 in 10.0 mi East 3.5 mph - N/A   Clear
7:50 PM 87.1 °F 15.1 °F 7% 29.79 in 10.0 mi Calm Calm - N/A   Clear
8:50 PM 82.9 °F 14.0 °F 8% 29.80 in 10.0 mi Calm Calm - N/A   Clear
9:50 PM 81.0 °F 12.9 °F 8% 29.82 in 10.0 mi Calm Calm - N/A   Clear
10:50 PM 79.0 °F 35.1 °F 20% 29.83 in 10.0 mi West 12.7 mph - N/A   Clear
11:50 PM 79.0 °F 37.9 °F 23% 29.83 in 10.0 mi West 11.5 mph - N/A   Clear